Estación de Contra Coronel

Ultimos registro cada 15 minutos 74
Estación Fecha / Hora Temperatura Humedad Lluvia Velocidad Dirección Radiación Presion
74 Contra Coronel 02-05-2026 18:15 6,7 91 0 0 277 0,6 1012,5
73 Contra Coronel 02-05-2026 18:00 8 85,7 0 0 277 0,6 1012,9
72 Contra Coronel 02-05-2026 17:45 10,2 76,4 0 0 277 8,1 1013
71 Contra Coronel 02-05-2026 17:30 12,6 66,1 0 0 277 39,4 1013
70 Contra Coronel 02-05-2026 17:15 13,4 61,7 0 0 277 86,9 1013,2
69 Contra Coronel 02-05-2026 17:00 13,5 62 0 0,7 305 136,9 1013,1
68 Contra Coronel 02-05-2026 16:45 14,1 57,7 0 0,3 270 181,9 1013
67 Contra Coronel 02-05-2026 16:30 14 57,7 0 0,3 272 220,6 1013
66 Contra Coronel 02-05-2026 16:15 13,2 58,2 0 0 174 236,9 1013
65 Contra Coronel 02-05-2026 16:00 13,4 56,7 0 0,3 208 290,6 1013,3
64 Contra Coronel 02-05-2026 15:45 14 57,5 0 0,7 293 318,1 1013,5
63 Contra Coronel 02-05-2026 15:30 14,6 56,4 0 0,7 270 374,4 1013,7
62 Contra Coronel 02-05-2026 15:15 13,3 62,5 0 0,3 239 418,1 1013,9
61 Contra Coronel 02-05-2026 15:00 13,2 68,2 0 0 150 449,4 1014
60 Contra Coronel 02-05-2026 14:45 11,5 69,1 0 1,3 170 439,4 1014,3
59 Contra Coronel 02-05-2026 14:30 11,4 64,5 0 1 180 391,9 1014,5
58 Contra Coronel 02-05-2026 14:15 11,4 69,1 0 1 181 470,6 1014,8
57 Contra Coronel 02-05-2026 14:00 11,3 77,4 0 0,7 152 519,4 1015
56 Contra Coronel 02-05-2026 13:45 10 80,3 0 0,7 140 274,4 1015,3
55 Contra Coronel 02-05-2026 13:30 10,3 79,6 0 0,7 147 579,4 1015,7
54 Contra Coronel 02-05-2026 13:15 10 80,7 0 0,3 168 624,4 1016
53 Contra Coronel 02-05-2026 13:00 8,2 85 0 1 121 235,6 1016,3
52 Contra Coronel 02-05-2026 12:45 8 84,4 0 1 132 400,6 1016,7
51 Contra Coronel 02-05-2026 12:30 8,3 85,5 0 1 128 391,9 1017
50 Contra Coronel 02-05-2026 12:15 8,2 87 0 1 164 424,4 1017,3
49 Contra Coronel 02-05-2026 12:00 7,6 89,2 0 0,7 114 501,9 1017,6
48 Contra Coronel 02-05-2026 11:45 6,7 98,3 0 1 142 491,9 1017,9
47 Contra Coronel 02-05-2026 11:30 6 100 0 0,7 163 476,9 1018,1
46 Contra Coronel 02-05-2026 11:15 5,2 100 0 0,7 178 349,4 1018,3
45 Contra Coronel 02-05-2026 11:00 4,3 100 0 1 178 228,1 1018,5
44 Contra Coronel 02-05-2026 10:45 3,8 100 0 1 132 254,4 1018,2
43 Contra Coronel 02-05-2026 10:30 4,1 100 0 0 173 221,9 1018,4
42 Contra Coronel 02-05-2026 10:15 3,3 100 0 0 209 189,4 1019
41 Contra Coronel 02-05-2026 10:00 2,7 100 0 0,3 191 145,6 1019
40 Contra Coronel 02-05-2026 09:45 2,4 100 0 0 153 170,6 1019,1
39 Contra Coronel 02-05-2026 09:30 1,8 100 0 0,3 147 124,4 1019,1
38 Contra Coronel 02-05-2026 09:15 1,6 100 0 1 185 135,6 1019,2
37 Contra Coronel 02-05-2026 09:00 1,3 100 0 0 265 95,6 1019,6
36 Contra Coronel 02-05-2026 08:45 1,2 100 0 0,3 260 68,1 1019,7
35 Contra Coronel 02-05-2026 08:30 1 100 0 0,3 211 46,9 1019,8
34 Contra Coronel 02-05-2026 08:15 0,8 100 0 0 251 24,4 1019,9
33 Contra Coronel 02-05-2026 08:00 0,7 100 0 0,3 183 11,9 1019,8
32 Contra Coronel 02-05-2026 07:45 0,6 100 0 0,3 194 5,6 1020
31 Contra Coronel 02-05-2026 07:30 0,8 100 0 0 220 0,6 1020,1
30 Contra Coronel 02-05-2026 07:15 0,9 100 0 0,3 258 0,6 1020,2
29 Contra Coronel 02-05-2026 07:00 1 100 0 0 326 0,6 1020,2
28 Contra Coronel 02-05-2026 06:45 0,9 100 0 0 336 0,6 1020,3
27 Contra Coronel 02-05-2026 06:30 0,7 100 0 0 336 0,6 1020,5
26 Contra Coronel 02-05-2026 06:15 0,4 100 0 0 336 0,6 1020,9
25 Contra Coronel 02-05-2026 06:00 0,5 100 0 0 336 0,6 1020,9
24 Contra Coronel 02-05-2026 05:45 0,3 100 0 0 336 0,6 1021,1
23 Contra Coronel 02-05-2026 05:30 0,2 99,9 0 0 336 0,6 1021,2
22 Contra Coronel 02-05-2026 05:15 0,3 100 0 0 336 0,6 1021,2
21 Contra Coronel 02-05-2026 05:00 0 100 0 0 336 0,6 1021,4
20 Contra Coronel 02-05-2026 04:45 -0,4 100 0 0 336 0,6 1021,6
19 Contra Coronel 02-05-2026 04:30 -0,8 100 0 0 336 0,6 1021,5
18 Contra Coronel 02-05-2026 04:15 -0,5 99,9 0 0 336 0,6 1021,7
17 Contra Coronel 02-05-2026 04:00 -0,2 99,8 0 0 336 0,6 1021,9
16 Contra Coronel 02-05-2026 03:45 0,1 99,8 0 0 336 0,6 1022,1
15 Contra Coronel 02-05-2026 03:30 -0,1 99,8 0 0 336 0,6 1022,2
14 Contra Coronel 02-05-2026 03:15 0,2 99,7 0 0 336 0,6 1022,4
13 Contra Coronel 02-05-2026 03:00 0,1 99,7 0 0 336 0,6 1022,5
12 Contra Coronel 02-05-2026 02:45 0 99,7 0 0 336 0,6 1022,7
11 Contra Coronel 02-05-2026 02:30 0,3 99,6 0 0 336 0,6 1022,9
10 Contra Coronel 02-05-2026 02:15 -0,1 99,3 0 0 336 0,6 1023
9 Contra Coronel 02-05-2026 02:00 0,1 99,1 0 0 336 0,6 1023
8 Contra Coronel 02-05-2026 01:45 0,4 99,3 0 0 336 0,6 1023,2
7 Contra Coronel 02-05-2026 01:30 0,9 99,4 0 0 336 0,6 1023,3
6 Contra Coronel 02-05-2026 01:15 0,5 99,3 0 0,3 336 0,6 1023,3
5 Contra Coronel 02-05-2026 01:00 1,2 99 0 0 336 0,6 1023,2
4 Contra Coronel 02-05-2026 00:45 0,8 99 0 0 336 0,6 1023,5
3 Contra Coronel 02-05-2026 00:30 1,6 98,6 0 0 336 0,6 1023,5
2 Contra Coronel 02-05-2026 00:15 2 98,7 0 0 336 0,6 1023,6
1 Contra Coronel 02-05-2026 00:00 2,5 98,9 0 0 336 0,6 1023,8